Terminal Aerodrome Forecast
Issued by NWS Jacksonville, FL

Home | Current Version | Previous Version | Text Only | Print | Product List | Glossary On
Versions: 1 2 3 4 5 6 7 8 9 10 11 12 13 14 15 16 17
000
FTUS42 KJAX 201720
TAFSSI
TAF
KSSI 201720Z 2018/2118 24009KT P6SM BKN025
     FM202000 21009KT P6SM BKN035
     FM202300 20006KT P6SM SCT050 BKN250
     FM210800 21004KT 3SM BR SCT003
     FM211000 21004KT 1SM BR VCSH BKN003 OVC015
     FM211500 21006KT 6SM -SHRA VCTS BKN007 OVC020CB=

USA.gov is the U.S. government's official web portal to all federal, state and local government web resources and services.